Tracking 29892 objects as of 21-Nov-2024
HD Live streaming from Space Station
objects crossing your sky now

STARLINK-1481

Track STARLINK-1481 now!
10-day predictions
STARLINK-1481 is classified as:


NORAD ID: 45742
Int'l Code: 2020-038N
Perigee: 501.4 km
Apogee: 502.9 km
Inclination: 53.1 °
Period: 94.5 minutes
Semi major axis: 6873 km
RCS: Unknown
Launch date: June 13, 2020
Source: United States (US)
Launch site: AIR FORCE EASTERN TEST RANGE (AFETR)
Your satellite tracking list
Your tracking list is empty




NASA's NSSDC Master Catalog

Two Line Element Set (TLE):
1 45742U 20038N   24325.91668981  .00724576  00000-0  27826-1 0  9996
2 45742  53.0543 202.5850 0001144 103.4890  50.7181 15.23598030  5790
Source of the keplerian elements: AFSPC